Location: Anjeux
(47.8815°N, 6.2076°E)
Time: 18:46:06
(UTC+00:00)

Cosmos 1745 Rocket - Pass Details

Date: 05 March 2021
Orbit: 953 x 997 km, 83.0° (Epoch: 19 April)

Event Time Altitude Azimuth Distance (km) Brightness Sun altitude
Rises 03:20:20 0° 351° (N) 3,691 7.2 -28.4°
Reaches altitude 10° 03:22:51 10° 353° (N) 2,745 6.5 -28.0°
Maximum altitude 03:29:10 81° 81° (E) 1,006 4.0 -27.0°
Drops below altitude 10° 03:35:30 10° 169° (S) 2,751 6.2 -26.0°
Sets 03:38:01 0° 170° (S) 3,700 6.9 -25.6°
